This is the latest recevied weather packets stored in our database for station/object OH5GWF-1. If no packets are shown the sender has not sent any weather packets the latest 10 day(s).
| Time | Temp. | Humidity | Pressure | Rain* | Wind** | Luminosity | Snow |
|---|---|---|---|---|---|---|---|
| 1777933566 | 6.11° C | 88% | 1001.1 hPa | 0 mm | - | - | - |
| 1777933144 | 6.11° C | 88% | 1001.1 hPa | 0 mm | - | - | - |
| 1777932722 | 5.56° C | 88% | 1000.9 hPa | 0 mm | - | - | - |
| 1777932313 | 5° C | 88% | 1000.8 hPa | 0 mm | - | - | - |
| 1777931891 | 5° C | 88% | 1001 hPa | 0 mm | - | - | - |
| 1777931467 | 4.44° C | 88% | 1001 hPa | 0 mm | - | - | - |
| 1777931045 | 4.44° C | 88% | 1000.9 hPa | 0 mm | - | - | - |
| 1777930624 | 3.89° C | 88% | 1000.9 hPa | 0 mm | - | - | - |
| 1777930204 | 4.44° C | 88% | 1000.8 hPa | 0 mm | - | - | - |
| 1777929782 | 4.44° C | 88% | 1000.9 hPa | 0 mm | - | - | - |
| 1777929372 | 4.44° C | 88% | 1000.9 hPa | 0 mm | - | - | - |
| 1777928951 | 4.44° C | 88% | 1000.9 hPa | 0 mm | - | - | - |
| 1777928529 | 4.44° C | 88% | 1000.9 hPa | 0 mm | - | - | - |
| 1777928108 | 4.44° C | 88% | 1000.9 hPa | 0 mm | - | - | - |
| 1777927686 | 4.44° C | 88% | 1001 hPa | 0 mm | - | - | - |
| 1777927263 | 4.44° C | 88% | 1001.1 hPa | 0 mm | - | - | - |
| 1777926842 | 4.44° C | 88% | 1001 hPa | 0 mm | - | - | - |
| 1777926433 | 4.44° C | 88% | 1000.9 hPa | 0 mm | - | - | - |
| 1777926011 | 4.44° C | 88% | 1000.8 hPa | 0 mm | - | - | - |
| 1777925589 | 4.44° C | 88% | 1000.8 hPa | 0 mm | - | - | - |
| 1777925166 | 5° C | 88% | 1000.8 hPa | 0 mm | - | - | - |
| 1777924743 | 5° C | 89% | 1000.7 hPa | 0 mm | - | - | - |
| 1777924322 | 5° C | 89% | 1000.7 hPa | 0 mm | - | - | - |
| 1777923911 | 5° C | 89% | 1000.7 hPa | 0 mm | - | - | - |
| 1777923489 | 5° C | 89% | 1000.6 hPa | 0 mm | - | - | - |
* Rain latest hour (hover to see other rain measurements)
** Current wind speed in m/s (hover to see current wind gust speed)